Time,TemperatureF,DewpointF,PressureIn,WindDirection,WindDirectionDegrees,WindSpeedMPH,WindSpeedGustMPH,Humidity,HourlyPrecipIn,Conditions,Clouds,dailyrainin,SoftwareType,DateUTC
2013-09-09 00:01:00,53.9,51.6,29.66,South,180,0.0,0.0,92,0.01,,---,0.00,VWS V12.07,2013-09-09 06:01:00,
2013-09-09 00:16:00,53.8,51.5,29.65,South,180,0.0,1.0,92,0.01,,---,0.00,VWS V12.07,2013-09-09 06:16:00,
2013-09-09 00:31:00,53.5,51.2,29.65,South,180,0.0,0.0,92,0.01,,---,0.00,VWS V12.07,2013-09-09 06:31:00,
2013-09-09 00:46:00,53.3,51.0,29.67,South,180,0.0,0.0,92,0.01,,---,0.00,VWS V12.07,2013-09-09 06:46:00,
2013-09-09 01:01:00,52.8,50.5,29.66,South,180,0.0,0.0,92,0.01,,---,0.00,VWS V12.07,2013-09-09 07:01:00,
2013-09-09 01:16:00,52.5,50.2,29.67,South,180,0.0,0.0,92,0.00,,---,0.00,VWS V12.07,2013-09-09 07:16:00,
2013-09-09 01:31:00,52.7,50.5,29.68,South,180,0.0,0.0,92,0.00,,---,0.00,VWS V12.07,2013-09-09 07:31:00,
2013-09-09 01:46:00,52.5,50.2,29.68,South,180,0.0,0.0,92,0.00,,---,0.00,VWS V12.07,2013-09-09 07:46:00,
2013-09-09 02:01:00,52.7,50.5,29.68,South,177,0.0,0.0,92,0.00,,---,0.00,VWS V12.07,2013-09-09 08:01:00,
2013-09-09 02:16:00,52.5,50.5,29.67,SSE,155,3.0,7.0,93,0.00,,---,0.00,VWS V12.07,2013-09-09 08:16:00,
2013-09-09 02:31:00,52.6,50.6,29.66,SE,142,0.0,3.0,93,0.00,,---,0.00,VWS V12.07,2013-09-09 08:31:00,
2013-09-09 02:46:00,52.4,50.4,29.65,SE,142,0.0,5.0,93,0.00,,---,0.00,VWS V12.07,2013-09-09 08:46:00,
2013-09-09 03:01:00,52.2,50.2,29.65,SE,142,0.0,5.0,93,0.00,,---,0.00,VWS V12.07,2013-09-09 09:01:00,
2013-09-09 03:16:00,52.2,50.2,29.69,SE,142,0.0,5.0,93,0.00,,---,0.00,VWS V12.07,2013-09-09 09:16:00,
2013-09-09 03:31:00,51.8,49.8,29.69,SE,142,0.0,0.0,93,0.00,,---,0.00,VWS V12.07,2013-09-09 09:31:00,
2013-09-09 03:46:00,51.5,49.5,29.68,SE,142,0.0,0.0,93,0.00,,---,0.00,VWS V12.07,2013-09-09 09:46:00,
2013-09-09 04:01:00,51.5,49.5,29.68,SE,142,0.0,0.0,93,0.00,,---,0.00,VWS V12.07,2013-09-09 10:01:00,
2013-09-09 04:16:00,51.9,49.9,29.68,SE,142,0.0,1.0,93,0.00,,---,0.00,VWS V12.07,2013-09-09 10:16:00,
2013-09-09 04:31:00,51.7,49.8,29.68,SSE,149,3.0,6.0,93,0.00,,---,0.00,VWS V12.07,2013-09-09 10:31:00,
2013-09-09 04:46:00,51.8,49.8,29.68,SSE,164,0.0,6.0,93,0.00,,---,0.00,VWS V12.07,2013-09-09 10:46:00,
2013-09-09 05:01:00,51.7,49.8,29.68,SSE,150,3.0,5.0,93,0.00,,---,0.00,VWS V12.07,2013-09-09 11:01:00,
2013-09-09 05:16:00,51.7,49.8,29.70,South,172,0.0,5.0,93,0.00,,---,0.00,VWS V12.07,2013-09-09 11:16:00,
2013-09-09 05:31:00,51.2,49.2,29.71,South,173,0.0,0.0,93,0.00,,---,0.00,VWS V12.07,2013-09-09 11:31:00,
2013-09-09 05:46:00,51.0,49.0,29.71,South,173,0.0,0.0,93,0.00,,---,0.00,VWS V12.07,2013-09-09 11:46:00,
2013-09-09 06:01:00,51.8,49.8,29.70,South,173,0.0,0.0,93,0.00,,---,0.00,VWS V12.07,2013-09-09 12:01:00,
2013-09-09 06:16:00,52.8,51.1,29.70,SE,138,0.0,6.0,94,0.03,,---,0.03,VWS V12.07,2013-09-09 12:16:00,
2013-09-09 06:31:00,52.5,50.5,29.70,SSE,154,4.0,5.0,93,0.03,,---,0.03,VWS V12.07,2013-09-09 12:31:00,
2013-09-09 06:46:00,52.2,50.2,29.72,South,173,6.0,12.0,93,0.03,,---,0.03,VWS V12.07,2013-09-09 12:46:00,
2013-09-09 07:01:00,52.3,50.3,29.72,SSW,192,9.0,9.0,93,0.03,,---,0.03,VWS V12.07,2013-09-09 13:01:00,
2013-09-09 07:17:00,52.9,51.2,29.74,SSE,165,2.0,10.0,94,0.03,,---,0.03,VWS V12.07,2013-09-09 13:17:00,
2013-09-09 07:31:00,53.5,51.8,29.73,South,187,4.0,5.0,94,0.03,,---,0.03,VWS V12.07,2013-09-09 13:31:00,
2013-09-09 07:46:00,53.8,51.8,29.72,South,178,0.0,7.0,93,0.00,,---,0.03,VWS V12.07,2013-09-09 13:46:00,
2013-09-09 08:01:00,54.2,52.2,29.72,SSW,196,3.0,4.0,93,0.00,,---,0.03,VWS V12.07,2013-09-09 14:01:00,
2013-09-09 08:16:00,54.8,52.8,29.74,SSW,196,0.0,5.0,93,0.00,,---,0.03,VWS V12.07,2013-09-09 14:16:00,
2013-09-09 08:31:00,55.2,52.9,29.74,SSW,196,0.0,0.0,92,0.00,,---,0.03,VWS V12.07,2013-09-09 14:31:00,
2013-09-09 08:46:00,55.9,53.9,29.74,South,188,0.0,4.0,93,0.00,,---,0.03,VWS V12.07,2013-09-09 14:46:00,
2013-09-09 09:01:00,56.9,54.6,29.73,SSE,167,0.0,0.0,92,0.00,,---,0.03,VWS V12.07,2013-09-09 15:01:00,
2013-09-09 09:16:00,59.5,57.5,29.72,SSE,167,0.0,0.0,93,0.00,,---,0.03,VWS V12.07,2013-09-09 15:16:00,
2013-09-09 09:31:00,60.9,56.0,29.70,SE,140,0.0,0.0,84,0.00,,---,0.03,VWS V12.07,2013-09-09 15:31:00,
2013-09-09 09:46:00,62.2,54.2,29.70,NNE,15,0.0,6.0,75,0.00,,---,0.03,VWS V12.07,2013-09-09 15:46:00,
2013-09-09 10:01:00,61.2,54.6,29.72,NNE,15,0.0,0.0,79,0.00,,---,0.03,VWS V12.07,2013-09-09 16:01:00,
2013-09-09 10:16:00,60.5,54.3,29.74,NNE,15,0.0,3.0,80,0.00,,---,0.03,VWS V12.07,2013-09-09 16:16:00,
2013-09-09 10:31:00,60.5,54.7,29.74,NNE,15,0.0,0.0,81,0.00,,---,0.03,VWS V12.07,2013-09-09 16:31:00,
2013-09-09 10:46:00,60.7,54.2,29.74,ENE,75,0.0,5.0,79,0.00,,---,0.03,VWS V12.07,2013-09-09 16:46:00,
2013-09-09 11:01:00,61.3,54.4,29.74,ESE,123,0.0,0.0,78,0.00,,---,0.03,VWS V12.07,2013-09-09 17:01:00,
2013-09-09 11:16:00,61.3,53.3,29.74,SE,143,3.0,7.0,75,0.00,,---,0.03,VWS V12.07,2013-09-09 17:16:00,
2013-09-09 11:31:00,61.0,54.1,29.74,SE,125,0.0,4.0,78,0.00,,---,0.03,VWS V12.07,2013-09-09 17:31:00,
2013-09-09 11:46:00,60.7,53.8,29.74,SE,145,3.0,11.0,78,0.00,,---,0.03,VWS V12.07,2013-09-09 17:46:00,
2013-09-09 12:01:00,60.2,54.0,29.74,SE,125,6.0,7.0,80,0.00,,---,0.03,VWS V12.07,2013-09-09 18:01:00,
2013-09-09 12:16:00,60.5,53.6,29.74,SSE,150,8.0,11.0,78,0.00,,---,0.03,VWS V12.07,2013-09-09 18:16:00,
2013-09-09 12:31:00,61.2,53.6,29.73,SE,134,2.0,8.0,76,0.00,,---,0.03,VWS V12.07,2013-09-09 18:31:00,
2013-09-09 12:46:00,62.0,54.4,29.72,SE,139,1.0,10.0,76,0.00,,---,0.03,VWS V12.07,2013-09-09 18:46:00,
2013-09-09 13:01:00,62.7,53.5,29.70,SE,138,2.0,7.0,72,0.00,,---,0.03,VWS V12.07,2013-09-09 19:01:00,
2013-09-09 13:16:00,62.9,53.8,29.69,SE,140,5.0,10.0,72,0.00,,---,0.03,VWS V12.07,2013-09-09 19:16:00,
2013-09-09 13:31:00,62.9,53.8,29.69,SE,140,6.0,9.0,72,0.00,,---,0.03,VWS V12.07,2013-09-09 19:31:00,
2013-09-09 13:46:00,63.3,53.4,29.68,ESE,109,4.0,12.0,70,0.00,,---,0.03,VWS V12.07,2013-09-09 19:46:00,
2013-09-09 14:01:00,65.9,53.8,29.66,South,184,3.0,6.0,65,0.00,,---,0.03,VWS V12.07,2013-09-09 20:01:00,
2013-09-09 14:16:00,66.3,52.0,29.66,SE,126,2.0,9.0,60,0.00,,---,0.03,VWS V12.07,2013-09-09 20:16:00,
2013-09-09 14:31:00,67.5,54.0,29.66,North,351,6.0,10.0,62,0.00,,---,0.03,VWS V12.07,2013-09-09 20:31:00,
2013-09-09 14:46:00,66.3,54.6,29.65,North,360,11.0,12.0,66,0.00,,---,0.03,VWS V12.07,2013-09-09 20:46:00,
2013-09-09 15:01:00,64.0,54.0,29.67,North,5,10.0,14.0,70,0.00,,---,0.03,VWS V12.07,2013-09-09 21:01:00,
2013-09-09 15:16:00,60.7,54.8,29.70,NNW,341,10.0,19.0,81,0.00,,---,0.03,VWS V12.07,2013-09-09 21:16:00,
2013-09-09 15:31:00,58.1,53.3,29.73,North,360,9.0,16.0,84,0.00,,---,0.04,VWS V12.07,2013-09-09 21:31:00,